• In Portugal
  • List of Countries
  • For 7 days
  • Water Temperature
  • Satellite Maps
  • Weather Map
  • Weather Widgets
  • user-avatar
    Login

    Hourly Weather Malatya

    Today, 11 December, Monday

    Time Temperature Precipitation Wind Pressure Humidity
    00:00 +3°C° 0 mm 1 mps 675 mmHg 71%
    01:00 +2°C° 0 mm 0 mps 675 mmHg 70%
    02:00 +2°C° 0 mm 0 mps 675 mmHg 70%
    03:00 +3°C° 0 mm 1 mps 675 mmHg 70%
    04:00 +3°C° 0 mm 1 mps 675 mmHg 70%
    05:00 +3°C° 0 mm 1 mps 675 mmHg 70%
    06:00 +3°C° 0 mm 1 mps 676 mmHg 69%
    07:00 +4°C° 0 mm 1 mps 676 mmHg 66%
    08:00 +5°C° 0 mm 1 mps 676 mmHg 63%
    09:00 +6°C° 0 mm 1 mps 677 mmHg 58%
    10:00 +7°C° 0 mm 1 mps 677 mmHg 55%
    11:00 +8°C° 0 mm 1 mps 677 mmHg 52%
    12:00 +9°C° 0 mm 1 mps 677 mmHg 50%
    13:00 +10°C° 0 mm 1 mps 677 mmHg 50%
    14:00 +10°C° 0 mm 1 mps 677 mmHg 50%
    15:00 +10°C° 0 mm 1 mps 677 mmHg 50%
    16:00 +9°C° 0 mm 1 mps 677 mmHg 55%
    17:00 +7°C° 0 mm 1 mps 677 mmHg 61%
    18:00 +6°C° 0 mm 1 mps 677 mmHg 67%
    19:00 +6°C° 0 mm 1 mps 677 mmHg 67%
    20:00 +6°C° 0 mm 1 mps 677 mmHg 67%
    21:00 +5°C° 0 mm 1 mps 677 mmHg 66%
    22:00 +5°C° 0 mm 1 mps 677 mmHg 66%
    23:00 +5°C° 0 mm 1 mps 677 mmHg 66%

    Tomorrow, 12 December, Tuesday

    Time Temperature Precipitation Wind Pressure Humidity
    00:00 +5°C° 0 mm 1 mps 677 mmHg 65%
    01:00 +5°C° 0 mm 1 mps 677 mmHg 65%
    02:00 +5°C° 0 mm 1 mps 677 mmHg 65%
    03:00 +4°C° 0 mm 1 mps 677 mmHg 65%
    04:00 +4°C° 0 mm 1 mps 677 mmHg 63%
    05:00 +4°C° 0 mm 1 mps 676 mmHg 62%
    06:00 +4°C° 0 mm 1 mps 676 mmHg 60%
    07:00 +5°C° 0 mm 1 mps 677 mmHg 57%
    08:00 +6°C° 0 mm 1 mps 677 mmHg 54%
    09:00 +7°C° 0 mm 1 mps 677 mmHg 50%
    10:00 +8°C° 0 mm 1 mps 677 mmHg 46%
    11:00 +10°C° 0 mm 1 mps 677 mmHg 41%
    12:00 +11°C° 0 mm 1 mps 677 mmHg 36%
    13:00 +11°C° 0 mm 1 mps 677 mmHg 35%
    14:00 +12°C° 0 mm 1 mps 676 mmHg 35%
    15:00 +12°C° 0 mm 1 mps 676 mmHg 34%
    16:00 +11°C° 0 mm 1 mps 676 mmHg 37%
    17:00 +9°C° 0 mm 1 mps 675 mmHg 40%
    18:00 +7°C° 0 mm 1 mps 675 mmHg 43%
    19:00 +7°C° 0 mm 1 mps 675 mmHg 42%
    20:00 +7°C° 0 mm 1 mps 675 mmHg 40%
    21:00 +7°C° 0 mm 1 mps 674 mmHg 39%
    22:00 +6°C° 0 mm 1 mps 674 mmHg 38%
    23:00 +6°C° 0 mm 1 mps 674 mmHg 37%

    Day after tomorrow, 13 December, Wednesday

    Time Temperature Precipitation Wind Pressure Humidity
    00:00 +6°C° 0 mm 1 mps 674 mmHg 36%
    01:00 +6°C° 0 mm 1 mps 674 mmHg 36%
    02:00 +6°C° 0 mm 1 mps 674 mmHg 35%
    03:00 +5°C° 0 mm 1 mps 673 mmHg 35%
    04:00 +5°C° 0 mm 1 mps 673 mmHg 35%
    05:00 +5°C° 0 mm 1 mps 673 mmHg 35%
    06:00 +5°C° 0 mm 1 mps 673 mmHg 34%
    07:00 +6°C° 0 mm 1 mps 673 mmHg 34%
    08:00 +7°C° 0 mm 1 mps 673 mmHg 33%
    09:00 +7°C° 0 mm 1 mps 673 mmHg 33%
    10:00 +9°C° 0 mm 1 mps 673 mmHg 30%
    11:00 +11°C° 0 mm 1 mps 673 mmHg 27%
    12:00 +12°C° 0 mm 1 mps 673 mmHg 25%
    13:00 +12°C° 0 mm 1 mps 673 mmHg 25%
    14:00 +12°C° 0 mm 1 mps 673 mmHg 25%
    15:00 +12°C° 0 mm 1 mps 672 mmHg 26%
    16:00 +11°C° 0 mm 1 mps 672 mmHg 28%
    17:00 +10°C° 0 mm 1 mps 672 mmHg 31%
    18:00 +7°C° 0 mm 2 mps 671 mmHg 34%
    19:00 +7°C° 0 mm 2 mps 671 mmHg 34%
    20:00 +7°C° 0 mm 2 mps 672 mmHg 33%
    21:00 +6°C° 0 mm 2 mps 672 mmHg 33%
    22:00 +6°C° 0 mm 2 mps 672 mmHg 34%
    23:00 +5°C° 0 mm 2 mps 672 mmHg 34%

    14 December, Thursday

    Time Temperature Precipitation Wind Pressure Humidity
    00:00 +5°C° 0 mm 2 mps 672 mmHg 34%
    01:00 +5°C° 0 mm 2 mps 671 mmHg 35%
    02:00 +5°C° 0 mm 2 mps 671 mmHg 35%
    03:00 +4°C° 0 mm 2 mps 671 mmHg 36%
    04:00 +4°C° 0 mm 2 mps 671 mmHg 36%
    05:00 +5°C° 0 mm 1 mps 671 mmHg 37%
    06:00 +5°C° 0 mm 1 mps 671 mmHg 38%
    07:00 +6°C° 0 mm 1 mps 671 mmHg 37%
    08:00 +6°C° 0 mm 1 mps 672 mmHg 37%
    09:00 +7°C° 0 mm 1 mps 672 mmHg 37%
    10:00 +8°C° 0 mm 1 mps 672 mmHg 33%
    11:00 +9°C° 0 mm 0 mps 672 mmHg 29%
    12:00 +10°C° 0 mm 0 mps 672 mmHg 26%
    13:00 +11°C° 0 mm 0 mps 672 mmHg 26%
    14:00 +12°C° 0 mm 1 mps 672 mmHg 27%
    15:00 +12°C° 0 mm 1 mps 671 mmHg 27%
    16:00 +10°C° 0 mm 1 mps 671 mmHg 31%
    17:00 +9°C° 0 mm 1 mps 671 mmHg 36%
    18:00 +6°C° 0 mm 0 mps 670 mmHg 40%
    19:00 +6°C° 0 mm 0 mps 670 mmHg 40%
    20:00 +6°C° 0 mm 0 mps 671 mmHg 40%
    21:00 +6°C° 0 mm 0 mps 671 mmHg 40%
    22:00 +5°C° 0 mm 0 mps 671 mmHg 40%
    23:00 +6°C° 0 mm 1 mps 671 mmHg 40%

    15 December, Friday

    Time Temperature Precipitation Wind Pressure Humidity
    00:00 +6°C° 0 mm 1 mps 671 mmHg 40%
    01:00 +5°C° 0 mm 0 mps 670 mmHg 40%
    02:00 +5°C° 0 mm 0 mps 670 mmHg 41%
    03:00 +4°C° 0 mm 0 mps 670 mmHg 41%
    04:00 +4°C° 0 mm 0 mps 670 mmHg 41%
    05:00 +3°C° 0 mm 0 mps 670 mmHg 41%
    06:00 +3°C° 0 mm 0 mps 670 mmHg 41%
    07:00 +4°C° 0 mm 0 mps 671 mmHg 40%
    08:00 +5°C° 0 mm 0 mps 671 mmHg 39%
    09:00 +6°C° 0 mm 0 mps 672 mmHg 39%
    10:00 +7°C° 0 mm 0 mps 672 mmHg 35%
    11:00 +8°C° 0 mm 0 mps 672 mmHg 31%
    12:00 +9°C° 0 mm 0 mps 672 mmHg 27%
    13:00 +10°C° 0 mm 0 mps 672 mmHg 28%
    14:00 +10°C° 0 mm 0 mps 672 mmHg 29%
    15:00 +10°C° 0 mm 0 mps 672 mmHg 29%
    16:00 +9°C° 0 mm 0 mps 672 mmHg 34%
    17:00 +7°C° 0 mm 0 mps 672 mmHg 38%
    18:00 +6°C° 0 mm 0 mps 672 mmHg 43%
    19:00 +7°C° 0 mm 1 mps 672 mmHg 43%
    20:00 +6°C° 0 mm 1 mps 672 mmHg 44%
    21:00 +6°C° 0 mm 1 mps 672 mmHg 44%
    22:00 +6°C° 0 mm 1 mps 672 mmHg 45%
    23:00 +4°C° 0 mm 0 mps 672 mmHg 46%

    16 December, Saturday

    Time Temperature Precipitation Wind Pressure Humidity
    00:00 +4°C° 0 mm 0 mps 672 mmHg 46%
    01:00 +4°C° 0 mm 0 mps 672 mmHg 47%
    02:00 +3°C° 0 mm 0 mps 672 mmHg 48%
    03:00 +3°C° 0 mm 0 mps 672 mmHg 48%
    04:00 +3°C° 0 mm 0 mps 672 mmHg 48%
    05:00 +3°C° 0 mm 0 mps 672 mmHg 49%
    06:00 +3°C° 0 mm 0 mps 672 mmHg 49%
    07:00 +4°C° 0 mm 0 mps 673 mmHg 48%
    08:00 +4°C° 0 mm 0 mps 673 mmHg 46%
    09:00 +5°C° 0 mm 0 mps 674 mmHg 45%
    10:00 +7°C° 0 mm 0 mps 674 mmHg 41%
    11:00 +8°C° 0 mm 0 mps 674 mmHg 37%
    12:00 +11°C° 0 mm 1 mps 674 mmHg 33%
    13:00 +11°C° 0 mm 1 mps 674 mmHg 33%
    14:00 +11°C° 0 mm 1 mps 674 mmHg 34%
    15:00 +11°C° 0 mm 1 mps 673 mmHg 34%
    16:00 +10°C° 0 mm 1 mps 673 mmHg 40%
    17:00 +8°C° 0 mm 1 mps 673 mmHg 46%
    18:00 +5°C° 0 mm 0 mps 673 mmHg 52%
    19:00 +5°C° 0 mm 0 mps 673 mmHg 53%
    20:00 +5°C° 0 mm 0 mps 673 mmHg 54%
    21:00 +4°C° 0 mm 0 mps 674 mmHg 55%
    22:00 +4°C° 0 mm 0 mps 674 mmHg 55%
    23:00 +4°C° 0 mm 0 mps 674 mmHg 56%
    Show more